Change the Weather History Date:

Tuesday, November 29, 2011

  Actual Average (KSOW) Record (KSOW)
Temperature  
Mean Temperature 42 °F -  
Max Temperature 57 °F 48 °F 69 °F (1980)
Min Temperature 26 °F 28 °F -9 °F (1976)
Degree Days  
Heating Degree Days 24    
Moisture  
Dew Point 19 °F    
Average Humidity 49    
Maximum Humidity 81    
Minimum Humidity 19    
Precipitation  
Precipitation 0.00 in - - ()
Sea Level Pressure  
Sea Level Pressure 30.25 in    
Wind  
Wind Speed 2 mph (SSW)    
Max Wind Speed 10 mph    
Max Gust Speed -    
Visibility 10 miles    
Events      
Averages and records for this station are not official NWS values.
T = Trace of Precipitation, MM = Missing Value Source: NWS Daily Summary

Daily Weather History Graph

Daily Weather History Graph

Search for Another Location

Airport or City:

Trip Planner

Search our weather history database for the weather conditions in past years. The results will help you decide how hot, cold, wet, or windy it might be!

Date:

Astronomy

Nov. 29, 2011 Rise Set
Actual Time 7:04 AM MST 5:07 PM MST
Civil Twilight 6:36 AM MST 5:34 PM MST
Nautical Twilight 6:05 AM MST 6:05 PM MST
Astronomical Twilight 5:35 AM MST 6:36 PM MST
Moon 10:56 AM MST (11/29) 9:58 PM MST (11/29)
Length of Visible Light 10h 58m
Length of Day
10h 03m
Waxing Crescent, 25% of the Moon is Illuminated
Nov 29
Waxing Crescent
Dec 2
First Quarter
Dec 10
Full
Dec 17
Last Quarter
Dec 24
New

Hourly Weather History & Observations

Time (MST) Temp. Windchill Dew Point Humidity Pressure Visibility Wind Dir Wind Speed Gust Speed Precip Events Conditions
12:54 AM 30.0 °F - 21.0 °F 69% 30.19 in 10.0 mi Calm Calm - N/A   Clear
1:54 AM 32.0 °F - 19.9 °F 61% 30.18 in 10.0 mi Calm Calm - N/A   Clear
2:54 AM 26.1 °F - 19.9 °F 78% 30.20 in 10.0 mi Calm Calm - N/A   Clear
3:54 AM 28.9 °F - 21.0 °F 72% 30.19 in 10.0 mi Calm Calm - N/A   Clear
4:54 AM 28.9 °F - 19.9 °F 69% 30.21 in 10.0 mi Calm Calm - N/A   Clear
7:54 AM 26.1 °F - 21.0 °F 81% 30.36 in 10.0 mi Calm Calm - N/A   Clear
8:54 AM 33.1 °F 30.0 °F 21.9 °F 64% 30.35 in 10.0 mi SSE 3.5 mph - N/A   Clear
9:54 AM 42.1 °F 37.1 °F 19.9 °F 41% 30.30 in 10.0 mi SSE 8.1 mph - N/A   Clear
10:54 AM 48.0 °F - 19.9 °F 33% 30.31 in 10.0 mi NNW 8.1 mph - N/A   Clear
11:54 AM 48.9 °F - 19.0 °F 31% 30.28 in 10.0 mi Variable 4.6 mph - N/A   Clear
12:54 PM 51.1 °F - 17.1 °F 26% 30.24 in 10.0 mi Variable 3.5 mph - N/A   Clear
1:54 PM 54.0 °F - 17.1 °F 23% 30.20 in 10.0 mi Calm Calm - N/A   Clear
2:54 PM 55.9 °F - 16.0 °F 21% 30.21 in 10.0 mi Calm Calm - N/A   Clear
3:54 PM 57.0 °F - 15.1 °F 19% 30.19 in 10.0 mi WNW 5.8 mph - N/A   Clear
4:54 PM 52.0 °F - 15.1 °F 23% 30.20 in 10.0 mi WNW 5.8 mph - N/A   Clear
5:54 PM 44.1 °F 42.5 °F 16.0 °F 32% 30.24 in 10.0 mi West 3.5 mph - N/A   Clear
6:54 PM 37.9 °F 35.5 °F 19.0 °F 47% 30.29 in 10.0 mi SSE 3.5 mph - N/A   Clear
7:54 PM 34.0 °F 28.8 °F 18.0 °F 52% 30.32 in 10.0 mi South 5.8 mph - N/A   Clear
8:54 PM 36.0 °F 28.5 °F 19.0 °F 50% 30.29 in 10.0 mi South 10.4 mph - N/A   Clear
9:54 PM 34.0 °F 31.0 °F 19.0 °F 54% 30.27 in 10.0 mi South 3.5 mph - N/A   Clear
10:54 PM 32.0 °F 28.7 °F 19.0 °F 59% 30.23 in 10.0 mi SSE 3.5 mph - N/A   Clear
11:54 PM 27.0 °F - 17.1 °F 66% 30.24 in 10.0 mi Calm Calm - N/A   Clear